Volver al catálogo

DELTA 1 DEB

ActivoLEO
NORAD 10866·DEBRIS·🇺🇸 United States

Lanzado Jul 29, 1976 desde Vandenberg Space Force Base

Loading…

Próximos Pases (próximas 24 horas)

TLE

ActualizadoSource: Space-Track

Época: Sep 14, 2026, 08:35 UTC

1 10866U 76077CU  26257.35821367 -.00000012  00000-0  29684-3 0  9991
2 10866 102.7394 227.0264 0148689 264.9305 258.9131 12.30646721250926

Sigue DELTA 1 DEB en tiempo real con AllMySat

Download on the App Store